Flag for Spain Weather past 2 weeks in A Coruña, Spain

Now
62 °F

Cool.


Feels Like: 62 °F
Forecast: 64 / 67 °F
Wind: 8 mph from Northeast

Location: La Coruna

Current Time: Sep 1, 2015 at 4:15:11 AM

Latest Report: Sep 1, 2015 at 3:00 AM


Visibility: 10 mi

Pressure: 30.18 "Hg

Humidity: 88%

Dew point: 58 °F

Location of A CoruñaLocation

Historic Weather in A Coruña — Graph

°F

A Coruña temperature yesterday

Maximum temperature yesterday: 66 °F (at 12:00 AM)
Minimum temperature yesterday: 63 °F (at 7:00 PM)
Average temperature yesterday: 65 °F

Past Weeks' High & Low Weather Summary

 TemperatureHumidityPressure
High76 °F (Aug 27, 1:00 PM)100% (Aug 27, 11:00 PM)30.18 "Hg (Aug 27, 11:00 PM)
Low59 °F (Aug 24, 8:00 AM)54% (Aug 24, 7:00 PM)29.62 "Hg (Aug 23, 5:00 PM)
Average66 °F86%30.00 "Hg
* Reported Aug 17 2:00 AM — Sep 1 2:00 AM, A Coruña, Weather by CustomWeather, © 2015

Note: Actual official high and low records may vary slightly from our data, if they occured in-between our weather recording intervals... More about our weather records

Advertising

A Coruña weather history for previous 24 hours

 ConditionsComfort  
Time TempWeatherWind HumidityBarometerVisibility
2:00 AM
Tue, Sep 1
62 °FOvercast.10 mph91%30.16 "Hg9 mi
1:00 AM62 °FCool.13 mph94%30.17 "Hg9 mi
12:00 AM63 °FMild.10 mph92%30.16 "Hg9 mi
10:00 PM
Mon, Aug 31
63 °FMild.10 mph94%30.14 "Hg9 mi
9:00 PM63 °FMild.10 mph96%30.11 "Hg9 mi
8:00 PM63 °FMild.10 mph98%30.11 "Hg9 mi
7:00 PM63 °FMild.13 mph100%30.10 "Hg10 mi
5:00 PM64 °FDrizzle. Cloudy.10 mph100%30.09 "Hg7 mi
4:00 PM64 °FLight freezing rain. Cloudy.9 mph100%30.08 "Hg6 mi
3:00 PM64 °FDrizzle. Cloudy.12 mph100%30.07 "Hg7 mi
2:00 PM64 °FDrizzle. Low clouds.8 mph100%30.06 "Hg1 mi
1:00 PM65 °FLight freezing rain. Cloudy.8 mph100%30.04 "Hg5 mi
12:00 PM65 °FDrizzle. Cloudy.10 mph100%30.03 "Hg4 mi
11:00 AM66 °FDrizzle. Low clouds.3 mph99%30.01 "Hg1 mi
10:00 AM66 °FMild.5 mph99%29.99 "Hg7 mi
9:00 AM66 °FDrizzle. Cloudy.5 mph100%29.96 "Hg4 mi
8:00 AM66 °FDrizzle. Cloudy.1 mph100%29.94 "Hg6 mi
7:00 AM66 °FDrizzle. Overcast.2 mph100%29.93 "Hg8 mi
6:00 AM66 °FMild.2 mph100%29.94 "Hg1 mi
5:00 AM66 °FMild.2 mph100%29.93 "Hg1 mi
4:00 AM66 °FDrizzle. Overcast.7 mph99%29.93 "Hg6 mi
Weather by CustomWeather, © 2015

See weather overviewHow to use our weather pages